GIA530 WIII-WAOO

Flight info

Callsign GIA530
Flight time 1h 22m
Altitude 37000
Route EGUKO T9 BUTNU
Aircraft B738/M-SDE2E3FGHIRWXY/LB1

Departure

Time 2026-04-29 11:40
Airport Soekarno-Hatta International Airport (WIII)

Arrival

Time 2026-04-29 13:02
Airport Syamsudin Noor International Airport (WAOO)
Time Latitude Longitude Altitude Speed Heading
2026-04-29 11:14 -6.11647 106.66751 37 ft 0 kts 158°
2026-04-29 11:27 -6.11637 106.66747 36 ft 4 kts 159°
2026-04-29 11:27 -6.11611 106.66737 37 ft 4 kts 161°
2026-04-29 11:28 -6.11585 106.66729 37 ft 4 kts 166°
2026-04-29 11:28 -6.11559 106.66724 37 ft 4 kts 178°
2026-04-29 11:28 -6.11535 106.66728 35 ft 4 kts 221°
2026-04-29 11:28 -6.11529 106.66735 36 ft 1 kts 249°
2026-04-29 11:31 -6.11535 106.66717 36 ft 8 kts 249°
2026-04-29 11:31 -6.11575 106.66621 36 ft 20 kts 247°
2026-04-29 11:31 -6.11631 106.66480 37 ft 16 kts 249°
2026-04-29 11:32 -6.11608 106.66392 37 ft 17 kts 334°
2026-04-29 11:32 -6.11475 106.66338 37 ft 24 kts 339°
2026-04-29 11:32 -6.11350 106.66277 35 ft 15 kts 300°
2026-04-29 11:32 -6.11373 106.66177 36 ft 16 kts 248°
2026-04-29 11:33 -6.11418 106.66065 37 ft 19 kts 248°
2026-04-29 11:33 -6.11471 106.65931 36 ft 21 kts 248°
2026-04-29 11:33 -6.11525 106.65796 36 ft 20 kts 248°
2026-04-29 11:33 -6.11577 106.65665 36 ft 20 kts 248°
2026-04-29 11:34 -6.11627 106.65538 34 ft 19 kts 248°
2026-04-29 11:34 -6.11676 106.65415 37 ft 19 kts 248°
2026-04-29 11:34 -6.11723 106.65296 37 ft 18 kts 248°
2026-04-29 11:34 -6.11769 106.65183 37 ft 17 kts 248°
2026-04-29 11:35 -6.11813 106.65073 37 ft 17 kts 248°
2026-04-29 11:35 -6.11855 106.64966 38 ft 16 kts 248°
2026-04-29 11:35 -6.11897 106.64861 37 ft 17 kts 248°
2026-04-29 11:35 -6.11951 106.64727 37 ft 23 kts 248°
2026-04-29 11:36 -6.12011 106.64577 37 ft 23 kts 248°
2026-04-29 11:36 -6.12069 106.64432 37 ft 22 kts 249°
2026-04-29 11:36 -6.12124 106.64291 37 ft 19 kts 248°
2026-04-29 11:36 -6.12173 106.64168 37 ft 19 kts 248°
2026-04-29 11:37 -6.12221 106.64050 37 ft 18 kts 248°
2026-04-29 11:37 -6.12250 106.63933 38 ft 17 kts 279°
2026-04-29 11:37 -6.12159 106.63883 38 ft 17 kts 17°
2026-04-29 11:37 -6.12083 106.63916 37 ft 10 kts 43°
2026-04-29 11:38 -6.12073 106.63933 37 ft 0 kts 65°
2026-04-29 11:39 -6.12049 106.63987 37 ft 35 kts 68°
2026-04-29 11:39 -6.11866 106.64450 37 ft 107 kts 68°
2026-04-29 11:39 -6.11511 106.65330 91 ft 158 kts 68°
2026-04-29 11:39 -6.11101 106.66410 582 ft 174 kts 69°
2026-04-29 11:40 -6.10690 106.67577 1327 ft 172 kts 68°
2026-04-29 11:40 -6.09929 106.68559 1996 ft 195 kts 44°
2026-04-29 11:40 -6.08852 106.69567 2303 ft 226 kts 45°
2026-04-29 11:40 -6.07671 106.70721 2666 ft 250 kts 46°
2026-04-29 11:41 -6.06427 106.71973 3397 ft 260 kts 47°
2026-04-29 11:41 -6.05169 106.73289 4419 ft 261 kts 51°
2026-04-29 11:41 -6.04088 106.74783 5426 ft 263 kts 57°
2026-04-29 11:41 -6.03109 106.76330 6347 ft 267 kts 59°
2026-04-29 11:42 -6.02110 106.77949 7227 ft 271 kts 58°
2026-04-29 11:42 -6.01108 106.79570 8099 ft 276 kts 58°
2026-04-29 11:42 -6.00097 106.81195 8940 ft 280 kts 58°
2026-04-29 11:42 -5.99052 106.82862 9817 ft 284 kts 57°
2026-04-29 11:43 -5.97981 106.84559 10476 ft 295 kts 57°
2026-04-29 11:43 -5.96826 106.86383 10672 ft 322 kts 57°
2026-04-29 11:43 -5.95572 106.88354 10848 ft 346 kts 57°
2026-04-29 11:43 -5.94239 106.90445 11145 ft 363 kts 57°
2026-04-29 11:44 -5.92861 106.92602 11710 ft 369 kts 57°
2026-04-29 11:44 -5.91469 106.94778 12424 ft 371 kts 57°
2026-04-29 11:44 -5.90064 106.96974 13089 ft 375 kts 57°
2026-04-29 11:44 -5.88646 106.99188 13717 ft 379 kts 57°
2026-04-29 11:45 -5.87214 107.01423 14252 ft 382 kts 57°
2026-04-29 11:45 -5.85770 107.03675 14818 ft 385 kts 57°
2026-04-29 11:45 -5.84310 107.05954 15368 ft 389 kts 57°
2026-04-29 11:45 -5.82840 107.08246 15907 ft 392 kts 57°
2026-04-29 11:46 -5.81359 107.10556 16427 ft 395 kts 57°
2026-04-29 11:46 -5.79881 107.12860 16936 ft 398 kts 57°
2026-04-29 11:46 -5.78380 107.15200 17441 ft 402 kts 57°
2026-04-29 11:46 -5.76855 107.17579 17903 ft 405 kts 58°
2026-04-29 11:47 -5.75323 107.19966 18336 ft 409 kts 58°
2026-04-29 11:47 -5.73778 107.22374 18747 ft 411 kts 58°
2026-04-29 11:47 -5.72223 107.24797 19156 ft 414 kts 58°
2026-04-29 11:47 -5.70659 107.27235 19556 ft 416 kts 58°
2026-04-29 11:48 -5.69086 107.29685 19966 ft 419 kts 58°
2026-04-29 11:48 -5.67502 107.32153 20350 ft 422 kts 58°
2026-04-29 11:48 -5.65905 107.34640 20723 ft 424 kts 58°
2026-04-29 11:48 -5.64301 107.37139 21093 ft 427 kts 58°
2026-04-29 11:49 -5.62710 107.39616 21440 ft 429 kts 58°
2026-04-29 11:49 -5.61067 107.42174 21784 ft 432 kts 58°
2026-04-29 11:49 -5.59455 107.44684 22115 ft 435 kts 58°
2026-04-29 11:49 -5.57808 107.47247 22444 ft 437 kts 58°
2026-04-29 11:50 -5.56130 107.49861 22777 ft 440 kts 58°
2026-04-29 11:50 -5.54488 107.52416 23086 ft 442 kts 58°
2026-04-29 11:50 -5.52816 107.55017 23397 ft 445 kts 58°
2026-04-29 11:50 -5.51134 107.57634 23657 ft 447 kts 58°
2026-04-29 11:51 -5.49446 107.60260 23920 ft 448 kts 58°
2026-04-29 11:51 -5.47755 107.62891 24187 ft 450 kts 58°
2026-04-29 11:51 -5.46050 107.65542 24452 ft 451 kts 58°
2026-04-29 11:51 -5.44346 107.68192 24711 ft 453 kts 58°
2026-04-29 11:52 -5.42634 107.70854 24957 ft 455 kts 58°
2026-04-29 11:52 -5.40916 107.73525 25199 ft 456 kts 58°
2026-04-29 11:52 -5.39187 107.76213 25440 ft 458 kts 58°
2026-04-29 11:52 -5.37457 107.78901 25685 ft 460 kts 58°
2026-04-29 11:53 -5.35721 107.81600 25919 ft 461 kts 58°
2026-04-29 11:53 -5.33977 107.84309 26151 ft 463 kts 58°
2026-04-29 11:53 -5.32818 107.86111 26301 ft 464 kts 58°
2026-04-29 11:53 -5.30491 107.89725 26598 ft 466 kts 58°
2026-04-29 11:54 -5.28730 107.92462 26817 ft 467 kts 58°
2026-04-29 11:54 -5.26963 107.95206 27039 ft 469 kts 58°
2026-04-29 11:54 -5.25791 107.97027 27182 ft 469 kts 58°
2026-04-29 11:54 -5.24017 107.99781 27393 ft 471 kts 58°
2026-04-29 11:55 -5.22237 108.02545 27597 ft 472 kts 58°
2026-04-29 11:55 -5.20446 108.05325 27796 ft 474 kts 58°
2026-04-29 11:55 -5.18654 108.08107 27993 ft 475 kts 58°
2026-04-29 11:55 -5.16854 108.10900 28177 ft 477 kts 58°
2026-04-29 11:56 -5.15055 108.13692 28357 ft 478 kts 58°
2026-04-29 11:56 -5.13247 108.16498 28547 ft 479 kts 58°
2026-04-29 11:56 -5.11435 108.19309 28735 ft 480 kts 58°
2026-04-29 11:56 -5.09617 108.22130 28925 ft 481 kts 58°
2026-04-29 11:57 -5.07803 108.24944 29168 ft 480 kts 58°
2026-04-29 11:57 -5.05988 108.27757 29457 ft 479 kts 58°
2026-04-29 11:57 -5.04181 108.30559 29774 ft 477 kts 58°
2026-04-29 11:57 -5.02375 108.33360 30043 ft 477 kts 58°
2026-04-29 11:58 -5.00597 108.36117 30268 ft 477 kts 58°
2026-04-29 11:58 -4.98795 108.38910 30508 ft 476 kts 58°
2026-04-29 11:58 -4.97000 108.41692 30760 ft 475 kts 58°
2026-04-29 11:58 -4.95209 108.44469 31009 ft 475 kts 58°
2026-04-29 11:59 -4.93413 108.47251 31250 ft 475 kts 58°
2026-04-29 11:59 -4.91620 108.50030 31508 ft 474 kts 58°
2026-04-29 11:59 -4.89830 108.52804 31782 ft 473 kts 58°
2026-04-29 11:59 -4.88041 108.55575 32044 ft 473 kts 58°
2026-04-29 12:00 -4.86250 108.58350 32314 ft 473 kts 58°
2026-04-29 12:00 -4.84465 108.61113 32594 ft 472 kts 58°
2026-04-29 12:00 -4.82681 108.63877 32875 ft 471 kts 58°
2026-04-29 12:00 -4.80898 108.66637 33163 ft 471 kts 58°
2026-04-29 12:01 -4.79120 108.69391 33449 ft 470 kts 58°
2026-04-29 12:01 -4.77342 108.72144 33744 ft 470 kts 58°
2026-04-29 12:01 -4.75588 108.74861 34026 ft 469 kts 58°
2026-04-29 12:01 -4.73820 108.77597 34294 ft 468 kts 58°
2026-04-29 12:02 -4.72048 108.80340 34577 ft 467 kts 58°
2026-04-29 12:02 -4.70408 108.83131 34874 ft 465 kts 63°
2026-04-29 12:02 -4.68975 108.86031 35168 ft 463 kts 65°
2026-04-29 12:02 -4.67606 108.88950 35428 ft 462 kts 65°
2026-04-29 12:03 -4.66258 108.91876 35712 ft 461 kts 66°
2026-04-29 12:03 -4.64912 108.94790 36000 ft 460 kts 65°
2026-04-29 12:03 -4.63559 108.97692 36280 ft 458 kts 65°
2026-04-29 12:03 -4.62199 109.00582 36538 ft 458 kts 65°
2026-04-29 12:04 -4.60837 109.03459 36814 ft 457 kts 65°
2026-04-29 12:04 -4.59465 109.06342 36863 ft 460 kts 65°
2026-04-29 12:04 -4.56725 109.12087 36877 ft 457 kts 65°
2026-04-29 12:05 -4.53991 109.17815 36878 ft 454 kts 65°
2026-04-29 12:05 -4.51270 109.23519 36879 ft 452 kts 65°
2026-04-29 12:06 -4.48566 109.29187 36879 ft 450 kts 65°
2026-04-29 12:06 -4.45864 109.34849 36881 ft 450 kts 65°
2026-04-29 12:07 -4.43159 109.40519 36880 ft 451 kts 65°
2026-04-29 12:07 -4.40446 109.46203 36882 ft 453 kts 65°
2026-04-29 12:08 -4.37724 109.51903 36881 ft 454 kts 65°
2026-04-29 12:08 -4.34999 109.57609 36887 ft 460 kts 65°
2026-04-29 12:09 -4.32222 109.63423 36890 ft 465 kts 65°
2026-04-29 12:09 -4.29417 109.69292 36883 ft 468 kts 65°
2026-04-29 12:10 -4.26606 109.75174 36876 ft 467 kts 65°
2026-04-29 12:10 -4.23803 109.81038 36877 ft 466 kts 65°
2026-04-29 12:11 -4.21007 109.86885 36881 ft 465 kts 65°
2026-04-29 12:11 -4.18209 109.92735 36881 ft 465 kts 65°
2026-04-29 12:12 -4.15431 109.98542 36879 ft 465 kts 65°
2026-04-29 12:12 -4.12630 110.04397 36880 ft 465 kts 65°
2026-04-29 12:13 -4.09832 110.10243 36880 ft 465 kts 65°
2026-04-29 12:13 -4.07032 110.16093 36878 ft 466 kts 65°
2026-04-29 12:14 -4.04231 110.21944 36882 ft 466 kts 65°
2026-04-29 12:14 -4.01429 110.27797 36880 ft 466 kts 65°
2026-04-29 12:15 -3.98623 110.33657 36879 ft 466 kts 65°
2026-04-29 12:15 -3.95834 110.39478 36880 ft 466 kts 65°
2026-04-29 12:16 -3.93025 110.45347 36879 ft 467 kts 65°
2026-04-29 12:16 -3.90220 110.51209 36880 ft 467 kts 65°
2026-04-29 12:17 -3.87409 110.57084 36873 ft 467 kts 65°
2026-04-29 12:17 -3.84595 110.62964 36873 ft 468 kts 65°
2026-04-29 12:18 -3.81800 110.68803 36874 ft 468 kts 65°
2026-04-29 12:18 -3.78979 110.74696 36873 ft 468 kts 65°
2026-04-29 12:19 -3.76158 110.80587 36874 ft 469 kts 65°
2026-04-29 12:19 -3.73337 110.86478 36874 ft 469 kts 65°
2026-04-29 12:20 -3.70533 110.92331 36871 ft 469 kts 65°
2026-04-29 12:20 -3.67705 110.98232 36874 ft 469 kts 65°
2026-04-29 12:21 -3.64879 111.04129 36874 ft 469 kts 65°
2026-04-29 12:21 -3.62057 111.10017 36870 ft 469 kts 65°
2026-04-29 12:22 -3.59252 111.15867 36874 ft 469 kts 65°
2026-04-29 12:22 -3.56423 111.21766 36876 ft 469 kts 65°
2026-04-29 12:23 -3.53601 111.27651 36874 ft 469 kts 65°
2026-04-29 12:23 -3.50775 111.33542 36876 ft 469 kts 65°
2026-04-29 12:24 -3.47967 111.39394 36873 ft 469 kts 65°
2026-04-29 12:24 -3.45145 111.45274 36877 ft 469 kts 65°
2026-04-29 12:25 -3.42319 111.51161 36875 ft 468 kts 65°
2026-04-29 12:26 -3.38085 111.59981 36872 ft 468 kts 65°
2026-04-29 12:26 -3.35277 111.65828 36872 ft 468 kts 65°
2026-04-29 12:27 -3.32460 111.71694 36874 ft 467 kts 65°
2026-04-29 12:27 -3.29641 111.77561 36874 ft 467 kts 65°
2026-04-29 12:28 -3.26829 111.83415 36875 ft 466 kts 65°
2026-04-29 12:28 -3.24018 111.89265 36874 ft 466 kts 65°
2026-04-29 12:29 -3.21210 111.95108 36878 ft 466 kts 65°
2026-04-29 12:29 -3.18401 112.00951 36879 ft 465 kts 65°
2026-04-29 12:30 -3.15631 112.06711 36866 ft 457 kts 65°
2026-04-29 12:30 -3.12876 112.12440 36870 ft 451 kts 65°
2026-04-29 12:31 -3.10180 112.18048 36878 ft 449 kts 65°
2026-04-29 12:31 -3.07477 112.23669 36876 ft 448 kts 65°
2026-04-29 12:32 -3.04771 112.29294 36879 ft 448 kts 65°
2026-04-29 12:32 -3.02269 112.35011 36882 ft 449 kts 69°
2026-04-29 12:33 -3.00000 112.40845 36882 ft 451 kts 69°
2026-04-29 12:33 -2.97730 112.46717 36880 ft 453 kts 69°
2026-04-29 12:34 -2.95423 112.52600 36877 ft 454 kts 69°
2026-04-29 12:34 -2.93112 112.58452 36881 ft 456 kts 69°
2026-04-29 12:35 -2.90777 112.64353 36877 ft 456 kts 69°
2026-04-29 12:35 -2.88440 112.70261 36874 ft 456 kts 69°
2026-04-29 12:36 -2.86107 112.76160 36873 ft 456 kts 69°
2026-04-29 12:36 -2.83772 112.82063 36873 ft 456 kts 69°
2026-04-29 12:37 -2.81442 112.87952 36873 ft 455 kts 69°
2026-04-29 12:37 -2.79111 112.93843 36871 ft 455 kts 69°
2026-04-29 12:38 -2.76782 112.99727 36874 ft 454 kts 69°
2026-04-29 12:38 -2.74470 113.05569 36874 ft 454 kts 69°
2026-04-29 12:39 -2.72150 113.11431 36872 ft 453 kts 69°
2026-04-29 12:39 -2.69829 113.17292 36873 ft 452 kts 69°
2026-04-29 12:40 -2.67512 113.23146 36872 ft 452 kts 69°
2026-04-29 12:40 -2.65198 113.28989 36854 ft 452 kts 69°
2026-04-29 12:40 -2.64030 113.31940 36307 ft 457 kts 69°
2026-04-29 12:41 -2.63257 113.33891 35899 ft 455 kts 69°
2026-04-29 12:41 -2.61744 113.37839 34944 ft 455 kts 74°
2026-04-29 12:41 -2.61274 113.40979 34195 ft 457 kts 89°
2026-04-29 12:41 -2.61616 113.44142 33385 ft 461 kts 103°
2026-04-29 12:42 -2.62205 113.46181 32837 ft 462 kts 106°
2026-04-29 12:42 -2.63200 113.49249 31984 ft 464 kts 107°
2026-04-29 12:42 -2.64574 113.53305 30805 ft 467 kts 108°
2026-04-29 12:42 -2.65278 113.55384 30202 ft 468 kts 108°
2026-04-29 12:43 -2.66313 113.58481 29183 ft 470 kts 107°
2026-04-29 12:43 -2.67333 113.61585 28079 ft 471 kts 107°
2026-04-29 12:43 -2.68342 113.64697 26876 ft 466 kts 107°
2026-04-29 12:43 -2.69318 113.67732 25788 ft 460 kts 107°
2026-04-29 12:44 -2.70276 113.70719 25055 ft 444 kts 107°
2026-04-29 12:44 -2.71203 113.73615 24342 ft 432 kts 107°
2026-04-29 12:44 -2.72107 113.76439 23631 ft 420 kts 107°
2026-04-29 12:44 -2.72990 113.79195 22842 ft 413 kts 107°
2026-04-29 12:45 -2.73872 113.81950 22126 ft 420 kts 107°
2026-04-29 12:45 -2.74789 113.84814 21445 ft 441 kts 107°
2026-04-29 12:45 -2.75719 113.87717 20760 ft 436 kts 107°
2026-04-29 12:45 -2.76639 113.90587 20054 ft 431 kts 107°
2026-04-29 12:46 -2.77550 113.93428 19346 ft 426 kts 107°
2026-04-29 12:46 -2.78455 113.96249 18612 ft 423 kts 107°
2026-04-29 12:46 -2.79348 113.99036 17852 ft 420 kts 107°
2026-04-29 12:46 -2.80226 114.01776 17078 ft 416 kts 107°
2026-04-29 12:47 -2.81097 114.04495 16353 ft 402 kts 107°
2026-04-29 12:47 -2.81934 114.07106 15651 ft 387 kts 107°
2026-04-29 12:47 -2.82746 114.09641 14883 ft 379 kts 107°
2026-04-29 12:47 -2.83541 114.12122 14313 ft 368 kts 107°
2026-04-29 12:48 -2.84319 114.14554 13719 ft 371 kts 107°
2026-04-29 12:48 -2.85126 114.17075 12997 ft 388 kts 107°
2026-04-29 12:48 -2.85951 114.19651 12298 ft 389 kts 107°
2026-04-29 12:48 -2.86777 114.22225 11495 ft 388 kts 108°
2026-04-29 12:49 -2.87954 114.24619 11066 ft 378 kts 125°
2026-04-29 12:49 -2.89714 114.26485 10917 ft 362 kts 140°
2026-04-29 12:49 -2.91662 114.27992 10777 ft 347 kts 142°
2026-04-29 12:49 -2.93563 114.29409 10626 ft 334 kts 142°
2026-04-29 12:50 -2.95397 114.30772 10487 ft 322 kts 142°
2026-04-29 12:50 -2.97142 114.32076 10361 ft 311 kts 142°
2026-04-29 12:50 -2.98845 114.33357 10224 ft 301 kts 142°
2026-04-29 12:50 -3.00489 114.34601 10105 ft 292 kts 142°
2026-04-29 12:51 -3.02083 114.35811 9976 ft 283 kts 142°
2026-04-29 12:51 -3.03648 114.37002 9674 ft 282 kts 142°
2026-04-29 12:51 -3.05209 114.38192 9363 ft 281 kts 142°
2026-04-29 12:51 -3.06759 114.39373 9052 ft 280 kts 142°
2026-04-29 12:52 -3.08304 114.40552 8746 ft 279 kts 142°
2026-04-29 12:52 -3.09841 114.41725 8436 ft 277 kts 142°
2026-04-29 12:52 -3.11375 114.42895 8138 ft 276 kts 142°
2026-04-29 12:52 -3.12901 114.44059 7838 ft 275 kts 142°
2026-04-29 12:53 -3.14401 114.45205 7541 ft 275 kts 142°
2026-04-29 12:53 -3.15920 114.46364 7239 ft 274 kts 142°
2026-04-29 12:53 -3.17434 114.47520 6941 ft 273 kts 142°
2026-04-29 12:53 -3.18946 114.48674 6642 ft 273 kts 142°
2026-04-29 12:54 -3.20456 114.49827 6338 ft 273 kts 142°
2026-04-29 12:54 -3.21966 114.50980 6027 ft 272 kts 142°
2026-04-29 12:54 -3.23474 114.52131 5710 ft 272 kts 142°
2026-04-29 12:54 -3.24975 114.53276 5406 ft 271 kts 142°
2026-04-29 12:55 -3.26624 114.54159 5101 ft 271 kts 165°
2026-04-29 12:55 -3.28496 114.54249 4813 ft 270 kts 187°
2026-04-29 12:55 -3.30344 114.53924 4539 ft 269 kts 190°
2026-04-29 12:55 -3.32155 114.53583 4321 ft 265 kts 190°
2026-04-29 12:56 -3.33945 114.53255 4177 ft 257 kts 189°
2026-04-29 12:56 -3.35683 114.52944 4049 ft 250 kts 189°
2026-04-29 12:56 -3.37378 114.52767 3931 ft 241 kts 171°
2026-04-29 12:56 -3.38822 114.53473 3837 ft 229 kts 131°
2026-04-29 12:57 -3.39581 114.54815 3774 ft 218 kts 111°
2026-04-29 12:57 -3.40093 114.56224 3597 ft 213 kts 109°
2026-04-29 12:57 -3.40533 114.57632 3334 ft 210 kts 104°
2026-04-29 12:57 -3.40859 114.59031 3064 ft 202 kts 102°
2026-04-29 12:58 -3.41126 114.60375 2826 ft 191 kts 101°
2026-04-29 12:58 -3.41371 114.61639 2590 ft 180 kts 101°
2026-04-29 12:58 -3.41604 114.62842 2365 ft 170 kts 101°
2026-04-29 12:58 -3.41820 114.63950 2153 ft 159 kts 101°
2026-04-29 12:59 -3.42024 114.65000 1985 ft 147 kts 101°
2026-04-29 12:59 -3.42217 114.65989 1779 ft 142 kts 101°
2026-04-29 12:59 -3.42404 114.66948 1604 ft 140 kts 101°
2026-04-29 12:59 -3.42590 114.67904 1416 ft 141 kts 102°
2026-04-29 13:00 -3.42777 114.68871 1238 ft 142 kts 101°
2026-04-29 13:00 -3.42966 114.69839 1054 ft 141 kts 101°
2026-04-29 13:00 -3.43141 114.70806 883 ft 141 kts 100°
2026-04-29 13:00 -3.43353 114.71758 744 ft 141 kts 103°
2026-04-29 13:01 -3.43573 114.72722 582 ft 142 kts 101°
2026-04-29 13:01 -3.43738 114.73687 374 ft 138 kts 101°
2026-04-29 13:01 -3.43923 114.74604 181 ft 133 kts 102°
2026-04-29 13:01 -3.44089 114.75486 74 ft 121 kts 100°
2026-04-29 13:02 -3.44222 114.76199 71 ft 83 kts 100°
2026-04-29 13:02 -3.44300 114.76624 71 ft 55 kts 100°
2026-04-29 13:02 -3.44352 114.76908 70 ft 35 kts 101°
2026-04-29 13:02 -3.44393 114.77135 74 ft 31 kts 100°
2026-04-29 13:03 -3.44409 114.77292 66 ft 15 kts 83°
2026-04-29 13:03 -3.44411 114.77343 71 ft 5 kts 143°
2026-04-29 13:03 -3.44426 114.77340 70 ft 2 kts 225°
2026-04-29 13:03 -3.44426 114.77311 67 ft 7 kts 274°
2026-04-29 13:04 -3.44415 114.77245 67 ft 16 kts 281°
2026-04-29 13:04 -3.44389 114.77114 74 ft 23 kts 281°
2026-04-29 13:04 -3.44360 114.76953 74 ft 23 kts 279°
2026-04-29 13:04 -3.44332 114.76797 73 ft 22 kts 281°
2026-04-29 13:05 -3.44302 114.76646 74 ft 22 kts 280°
2026-04-29 13:05 -3.44277 114.76499 74 ft 21 kts 280°
2026-04-29 13:05 -3.44250 114.76356 73 ft 21 kts 280°
2026-04-29 13:05 -3.44225 114.76217 67 ft 20 kts 280°
2026-04-29 13:06 -3.44200 114.76083 73 ft 19 kts 281°
2026-04-29 13:06 -3.44174 114.75972 73 ft 10 kts 295°
2026-04-29 13:06 -3.44124 114.75946 75 ft 8 kts
2026-04-29 13:06 -3.44066 114.75957 66 ft 9 kts 11°
2026-04-29 13:07 -3.43992 114.75971 71 ft 12 kts 11°
2026-04-29 13:07 -3.43934 114.75972 74 ft 7 kts 337°
2026-04-29 13:07 -3.43887 114.75966 67 ft 7 kts 11°
2026-04-29 13:07 -3.43843 114.75974 66 ft 5 kts 11°
2026-04-29 13:08 -3.43835 114.75975 67 ft 2 kts 11°